"Pseudo-MPEC" for CEJJ692

Created 2026 Apr 16 23:35:10 UT using Find_Orb

Click here for an explanation of pseudo-MPECs

 
 Astrometry: 
     CEJJ692*1C2026 04 16.35148214 54 28.510+05 47 26.10   ~4G95 19.80GVNEOCPG96
     CEJJ692 1C2026 04 16.35662514 54 52.640+05 41 22.00   ~4G95 19.70GVNEOCPG96
     CEJJ692 1C2026 04 16.36177414 55 16.900+05 35 15.30   ~4G95       VNEOCPG96
     CEJJ692 1C2026 04 16.36692914 55 41.090+05 29 09.50   ~4G95 19.80GVNEOCPG96
     CEJJ692  C2026 04 16.38136014 56 45.909+05 11 28.83   ~4G9o 19.2 GWNEOCPH01
     CEJJ692 1C2026 04 16.38173314 56 51.320+05 11 29.26   ~4G9Z 19.17GVNEOCPI52
     CEJJ692 1C2026 04 16.38360714 57 00.238+05 09 14.26   ~4G9Z 19.29GVNEOCPI52
     CEJJ692  C2026 04 16.38475714 57 02.117+05 07 23.95   ~4G9o 18.9 GWNEOCPH01
     CEJJ692 1C2026 04 16.38551214 57 09.313+05 06 56.99   ~4G9Z 19.09GVNEOCPI52
     CEJJ692 1C2026 04 16.38742714 57 18.443+05 04 38.82   ~4G9Z 19.35GVNEOCPI52
     CEJJ692  C2026 04 16.39920614 58 11.287+04 49 58.23   ~4G9o 19.2 GWNEOCPH01
     CEJJ692  C2026 04 16.40282914 58 28.740+04 45 34.43   ~4G9o 18.9 GWNEOCPH01
     CEJJ692  C2026 04 16.42927015 00 50.058+04 12 27.99   ~4GEK 19.16GVNEOCPU74
     CEJJ692  C2026 04 16.43254515 01 06.171+04 08 24.22   ~4GEK 19.16GVNEOCPU74
     CEJJ692 1C2026 04 16.43286415 00 57.924+04 09 15.16   ~4GAo 18.53GVNEOCPI52
     CEJJ692 1C2026 04 16.43327815 00 59.958+04 08 44.45   ~4GAo 19.19GVNEOCPI52
     CEJJ692 1C2026 04 16.43368715 01 01.956+04 08 13.60   ~4GAo 18.98GVNEOCPI52
     CEJJ692 1C2026 04 16.43409915 01 03.976+04 07 43.36   ~4GAo 18.95GVNEOCPI52
     CEJJ692 KB2026 04 16.56736315 14 12.869+01 16 43.85   ~4GEZ 19.0 GXNEOCPQ06
     CEJJ692 KB2026 04 16.58389915 15 40.736+00 54 54.13   ~4GEZ 19.2 GXNEOCPQ06
     CEJJ692 KB2026 04 16.94347615 51 40.54 -07 35 45.7    ~4GNK 19.0 GVNEOCPL01
     CEJJ692 KB2026 04 16.94996415 52 20.42 -07 45 23.4    ~4GNK 19.3 GVNEOCPL01

Station data:
(G96) Mt. Lemmon Survey  (N32.442729 W110.788720)  US/Arizona.  Observer E.
   J. Christensen. Measurers T. Beuden, V. F. Carvajal, D. Fay, J. B.
   Fazekas, D. C. Fuls, A. R. Gibbs, A. D. Grauer, H. Gröller, J. K. Hogan,
   R. A. Kowalski, S. M. Larson, G. J. Leonard, D. Rankin, R. L. Seaman, F.
   C. Shelly, K. W. Wierzchoś. 1.5-m reflector + 10K CCD.
(H01) Magdalena Ridge Observatory, Socorro  (N33.984833 W107.189333)  US/New
   Mexico.  Observers W. H. Ryan, E. V. Ryan. Measurer W. H. Ryan. 2.4-m
   f/8.9 reflector + CCD.
(I52) Steward Observatory, Mt. Lemmon Station  (N32.442570 W110.788920)
   US/Arizona. Measurers T. Beuden, V. F. Carvajal, D. Fay, J. B. Fazekas, D.
   C. Fuls, A. R. Gibbs, A. D. Grauer, H. Gröller, J. K. Hogan, R. A.
   Kowalski, S. M. Larson, G. J. Leonard, D. Rankin, R. L. Seaman, F. C.
   Shelly, K. W. Wierzchoś. 1.0-m prime focus + CCD.
(L01) Višnjan Observatory, Tičan  (N45.290897 E13.749300)  Croatia.
   Observers K. Korlević, L. Poropat. Measurer K. Korlevic. 1.0-m f/2.9
   reflector + CCD.
(Q06) Tarui Observatory, Tarui  (N35.394791 E136.495470)  Japan.  Observer H.
   Watanabe. 0.35-m f/1.9 Schmidt-Cassegrain + CMO.
(U74) JPL SynTrack Robotic Telescope 2, Auberry  (N37.070341 W119.412800)
   US/California.  Observers N. Saini, C. Zhai, R. Trahan, M. Zhan, M. Shao.
   0.36-m f/2.2 Schmidt.

Orbital elements:  CEJJ692
   Perihelion 2026 Apr 30.597398 +/- 0.00567 TT = 14:20:15.1 (JD 2461161.097398)
Epoch 2026 Apr 17.0 TT = JDT 2461147.5   Earth MOID: 0.0036      AutoNEOCP
M 354.679580797 +/- 0.0057          (J2000 ecliptic)
n   0.391282166 +/- 0.000352        Peri.  195.422820 +/- 0.006
a   1.851296641 +/- 0.00111         Node    27.557570 +/- 0.00022
e   0.46140158 +/- 0.000325         Incl.    6.683563 +/- 0.0032
P   2.519/920.035d         H 28.78  G  0.15   U  7.4
q 0.997105437 +/- 1.06e-5    Q 2.705487846 +/- 0.00222
From 22 observations 2026 Apr. 16 (14.4 hr); mean residual 0".48
Residuals in arcseconds: 
260416 G96  .32-  .22+    260416 I52  .32+  .16+    260416 I52  .21-  .01-    
260416 G96  .32-  .03-    260416 I52  .35+  .18+    260416 I52  .20-  .29+    
260416 G96  .35+  1.3-    260416 H01  .11+  .09+    260416 Q06  .01+  .29-    
260416 G96  1.3-  .05-    260416 H01  .17+  .05+    260416 Q06  .65+  .29+    
260416 H01  .74+  .44-    260416 U74  1.1-  1.1+    260416 L01  .12-  .05+    
260416 I52  .22+  .20+    260416 U74  .12+  .43-    260416 L01  .04-  .19-    
260416 I52  .26+  .13+    260416 I52  .21-  .56+    
260416 H01  .95+  .60-    260416 I52  .12-  .53+    

Ephemerides (geocentric):
Date (UTC) HH   RA             Dec           delta  r     elong  mag " sig PA
---- --------  ------------   ------------  ------ ------ -----  --- --------
2026 04 17 00  15 57 08.517   -08 43 27.41  .00719 1.0097 145.9 19.5 .651 145
2026 04 17 01  16 01 41.199   -09 45 10.74  .00717 1.0096 144.9 19.5 .640 144
2026 04 17 02  16 06 16.967   -10 46 59.39  .00716 1.0095 143.9 19.5 .622 143
2026 04 17 03  16 10 55.648   -11 48 46.42  .00715 1.0094 142.8 19.6 .598 142
2026 04 17 04  16 15 37.060   -12 50 24.81  .00714 1.0094 141.7 19.6 .566 141
2026 04 17 05  16 20 21.006   -13 51 47.50  .00714 1.0093 140.6 19.6 .527 141
2026 04 17 06  16 25 07.277   -14 52 47.44  .00715 1.0092 139.5 19.7 .482 140
2026 04 17 07  16 29 55.653   -15 53 17.71  .00716 1.0091 138.3 19.7 .429 139
2026 04 17 08  16 34 45.903   -16 53 11.52  .00717 1.0091 137.2 19.7 .370 138
2026 04 17 09  16 39 37.787   -17 52 22.33  .00719 1.0090 136.0 19.8 .305 137
2026 04 17 10  16 44 31.056   -18 50 43.87  .00721 1.0089 134.8 19.8 .233 136
2026 04 17 11  16 49 25.453   -19 48 10.21  .00724 1.0088 133.6 19.9 .156 135
2026 04 17 12  16 54 20.716   -20 44 35.80  .00728 1.0088 132.4 19.9 .073 131
2026 04 17 13  16 59 16.577   -21 39 55.53  .00732 1.0087 131.2 19.9 .016 161
2026 04 17 14  17 04 12.767   -22 34 04.72  .00736 1.0086 130.1 20.0 .107 139
2026 04 17 15  17 09 09.012   -23 26 59.21  .00741 1.0085 128.9 20.0 .204 136
2026 04 17 16  17 14 05.040   -24 18 35.30  .00747 1.0085 127.7 20.1 .304 135
2026 04 17 17  17 19 00.579   -25 08 49.83  .00752 1.0084 126.6 20.1 .407 134
2026 04 17 18  17 23 55.360   -25 57 40.12  .00759 1.0083 125.4 20.2 .513 133
2026 04 17 19  17 28 49.120   -26 45 04.01  .00765 1.0083 124.3 20.2 .621 132
2026 04 17 20  17 33 41.597   -27 30 59.83  .00772 1.0082 123.2 20.3 .731 132
2026 04 17 21  17 38 32.540   -28 15 26.38  .00780 1.0081 122.1 20.3 .842 131
2026 04 17 22  17 43 21.704   -28 58 22.92  .00788 1.0080 121.0 20.4 .954 130
2026 04 17 23  17 48 08.855   -29 39 49.12  .00796 1.0080 120.0 20.4 1.07 129
2026 04 18 00  17 52 53.766   -30 19 45.07  .00805 1.0079 118.9 20.5 1.18 129
2026 04 18 01  17 57 36.225   -30 58 11.21  .00814 1.0078 117.9 20.5 1.29 128
2026 04 18 02  18 02 16.028   -31 35 08.32  .00823 1.0078 116.9 20.6 1.40 127
2026 04 18 03  18 06 52.987   -32 10 37.48  .00833 1.0077 115.9 20.7 1.52 126
2026 04 18 04  18 11 26.924   -32 44 40.03  .00843 1.0076 115.0 20.7 1.63 126
2026 04 18 05  18 15 57.678   -33 17 17.56  .00853 1.0075 114.0 20.8 1.73 125
2026 04 18 06  18 20 25.097   -33 48 31.86  .00864 1.0075 113.1 20.8 1.84 124
2026 04 18 07  18 24 49.045   -34 18 24.88  .00875 1.0074 112.2 20.9 1.95 124
2026 04 18 08  18 29 09.401   -34 46 58.74  .00886 1.0073 111.4 20.9 2.05 123
2026 04 18 09  18 33 26.056   -35 14 15.65  .00897 1.0073 110.5 21.0 2.15 122
2026 04 18 10  18 37 38.914   -35 40 17.93  .00909 1.0072 109.7 21.0 2.25 122
2026 04 18 11  18 41 47.892   -36 05 07.96  .00921 1.0071 108.9 21.1 2.35 121
2026 04 18 12  18 45 52.921   -36 28 48.17  .00933 1.0071 108.1 21.1 2.45 120
2026 04 18 13  18 49 53.942   -36 51 21.02  .00946 1.0070 107.4 21.2 2.54 120
2026 04 18 14  18 53 50.911   -37 12 48.98  .00958 1.0069 106.6 21.3 2.63 119
2026 04 18 15  18 57 43.791   -37 33 14.53  .00971 1.0068 105.9 21.3 2.72 118
2026 04 18 16  19 01 32.558   -37 52 40.10  .00984 1.0068 105.2 21.4 2.81 118
2026 04 18 17  19 05 17.198   -38 11 08.14  .00997 1.0067 104.5 21.4 2.90 117
2026 04 18 18  19 08 57.705   -38 28 41.03  .01011 1.0066 103.8 21.5 2.98 117
2026 04 18 19  19 12 34.083   -38 45 21.10  .01024 1.0066 103.2 21.5 3.06 116
2026 04 18 20  19 16 06.344   -39 01 10.65  .01038 1.0065 102.6 21.6 3.14 115
2026 04 18 21  19 19 34.505   -39 16 11.91  .01052 1.0064 101.9 21.6 3.21 115
2026 04 18 22  19 22 58.593   -39 30 27.04  .01066 1.0064 101.3 21.7 3.28 114
2026 04 18 23  19 26 18.639   -39 43 58.15  .01080 1.0063 100.8 21.7 3.36 114